This is the latest recevied weather packets stored in our database for station/object OK1UZT-14. If no packets are shown the sender has not sent any weather packets the latest 10 day(s).
| Time | Temp. | Humidity | Pressure | Rain* | Wind** | Luminosity | Snow |
|---|---|---|---|---|---|---|---|
| 1788091213 | 26.11° C | 41% | 1016.1 hPa | - | - | - | - |
| 1788090014 | 25.56° C | 41% | 1016.1 hPa | - | - | - | - |
| 1788089413 | 26.11° C | 41% | 1016.2 hPa | - | - | - | - |
| 1788088813 | 26.11° C | 42% | 1016.3 hPa | - | - | - | - |
| 1788088213 | 26.11° C | 41% | 1016.3 hPa | - | - | - | - |
| 1788087613 | 26.11° C | 40% | 1016.5 hPa | - | - | - | - |
| 1788087013 | 25.56° C | 44% | 1016.5 hPa | - | - | - | - |
| 1788086413 | 25.56° C | 44% | 1016.6 hPa | - | - | - | - |
| 1788085813 | 25° C | 46% | 1016.8 hPa | - | - | - | - |
| 1788085213 | 25° C | 46% | 1016.9 hPa | - | - | - | - |
| 1788084613 | 25° C | 48% | 1017 hPa | - | - | - | - |
| 1788084013 | 25° C | 47% | 1017.1 hPa | - | - | - | - |
| 1788083413 | 25° C | 49% | 1017.2 hPa | - | - | - | - |
| 1788082813 | 25° C | 49% | 1017.2 hPa | - | - | - | - |
| 1788082213 | 25° C | 51% | 1017.1 hPa | - | - | - | - |
| 1788081613 | 24.44° C | 51% | 1017.2 hPa | - | - | - | - |
| 1788081013 | 23.89° C | 52% | 1017.2 hPa | - | - | - | - |
| 1788080413 | 23.89° C | 52% | 1017.2 hPa | - | - | - | - |
| 1788079813 | 23.89° C | 54% | 1017.3 hPa | - | - | - | - |
| 1788079213 | 23.33° C | 55% | 1017.5 hPa | - | - | - | - |
| 1788078613 | 23.33° C | 55% | 1017.5 hPa | - | - | - | - |
| 1788078013 | 22.78° C | 56% | 1017.4 hPa | - | - | - | - |
| 1788077413 | 22.22° C | 58% | 1017.4 hPa | - | - | - | - |
| 1788076813 | 21.67° C | 61% | 1017.4 hPa | - | - | - | - |
| 1788076213 | 21.11° C | 62% | 1017.4 hPa | - | - | - | - |
* Rain since midnight (hover to see other rain measurements)
** Current wind speed in m/s (hover to see current wind gust speed)